Regional Weather Roundup
Issued by NWS

Home | Current Version | Previous Version | Text Only | Print | Product List | Glossary Off
Versions: 1 2 3 4 5 6 7 8 9 10 11 12 13 14 15 16 17 18 19 20 21 22 23 24 25 26 27 28 29 30 31 32 33 34 35 36 37 38 39 40 41 42 43 44 45 46 47 48 49 50

000
ASUS43 KDMX 230807
RWRIA

WEATHER ROUNDUP FOR IOWA
NATIONAL WEATHER SERVICE DES MOINES IA
300 AM CDT SAT MAY 23 2015

NOTE: "FAIR" INDICATES FEW OR NO CLOUDS BELOW 12,000 FEET WITH NO
SIGNIFICANT WEATHER AND/OR OBSTRUCTIONS TO VISIBILITY.

* - THESE STATIONS ARE NOT NWS STATIONS...THUS NOT UNDER NWS
QUALITY CONTROL.  THEY ALSO DO NOT REPORT WEATHER SUCH
AS PRECIPITATION OR FOG.

IAZ001>003-012>014-020>022-031>034-043>046-230900-
   NORTHWEST IOWA

CITY           SKY/WX    TMP DP  RH WIND       PRES   REMARKS
CARROLL *      CLOUDY    59  46  63 SW8       30.21S
CHEROKEE *     CLOUDY    55  50  82 SE5       30.21R
DENISON *      CLOUDY    54  50  87 SE7       30.19S
LE MARS *      CLOUDY    57  48  72 S5        30.21R
ORANGE CITY *  CLOUDY    55  46  71 CALM      30.21R
SHELDON *      CLOUDY    55  48  76 E8        30.20F
SIOUX CITY     CLOUDY    57  49  74 SE3       30.20R
SPENCER        LGT RAIN  58  47  66 VRB3      30.22R
STORM LAKE *   CLOUDY    57  48  72 SE5       30.23R
$$

IAZ055>058-069>071-079>083-090>094-230900-
   SOUTHWEST IOWA

CITY           SKY/WX    TMP DP  RH WIND       PRES   REMARKS
ATLANTIC *     CLOUDY    54  48  82 CALM      30.22R
AUDUBON *      MOCLDY    54  48  82 CALM      30.23R
CLARINDA *     CLOUDY    55  52  88 CALM      30.22S
COUNCIL BLFS * CLOUDY    57  52  82 S8        30.20S
CRESTON *      CLOUDY    57  52  82 S7        30.23R
HARLAN  *      CLOUDY    55  54  94 CALM      30.25R
LAMONI         MOCLDY    58  51  78 E3        30.23R
RED OAK *      CLOUDY    55  52  88 CALM      30.21S
SHENANDOAH *   CLOUDY    55  52  88 SE6       30.20F
$$

IAZ047>049-059>061-072>074-084-230900-
   CENTRAL IOWA

CITY           SKY/WX    TMP DP  RH WIND       PRES   REMARKS
AMES           MOCLDY    55  50  83 CALM      30.23R
ANKENY *       PTCLDY    52  50  93 CALM      30.22S
CHARITON *     PTCLDY    52  50  93 S6        30.24R
DES MOINES     MOCLDY    57  49  74 S7        30.23R
GRINNELL*      CLOUDY    57  48  72 CALM      30.25R
KNOXVILLE *    CLOUDY    55  48  76 SE3       30.23R
MARSHALLTOWN   CLOUDY    58  47  66 CALM      30.23R
PELLA *        PTCLDY    55  54  94 CALM      30.24S
PERRY *        CLOUDY    57  50  77 SE5       30.23R
$$

IAZ004>006-015-016-023>025-035-036-230900-
   NORTH CENTRAL IOWA

CITY           SKY/WX    TMP DP  RH WIND       PRES   REMARKS
ALGONA *       CLOUDY    57  48  72 NE10      30.22F
CLARION *      CLOUDY    59  48  67 NE6       30.23S
ESTHERVILLE    CLOUDY    53  46  77 CALM      30.22R
FORT DODGE *   CLOUDY    55  46  71 CALM      30.23S
MASON CITY     CLOUDY    56  45  66 W8        30.25R
FOREST CITY *  CLEAR     52  46  82 N5        30.24R
IOWA FALLS *   CLOUDY    59  46  63 CALM      30.24S
$$

IAZ007>011-017>019-026>030-037>042-050>054-066-230900-
   NORTHEAST IOWA

CITY           SKY/WX    TMP DP  RH WIND       PRES   REMARKS
CEDAR RAPIDS   CLOUDY    57  50  77 W6        30.23R
CHARLES CITY * CLOUDY    57  45  62 W7        30.23R
CLINTON *      CLOUDY    57  37  47 SE10      30.27S
DECORAH *      CLEAR     55  43  62 CALM      30.22S
DUBUQUE        CLOUDY    56  40  55 SE7       30.25S
MONTICELLO *   PTCLDY    57  48  72 SE5       30.24R
OELWEIN *      PTCLDY    55  43  62 W6        30.24R
WATERLOO       CLOUDY    55  47  74 CALM      30.22S
$$

IAZ064-065-067-068-078-230900-
   EAST CENTRAL IOWA

CITY           SKY/WX    TMP DP  RH WIND       PRES   REMARKS
DAVENPORT      CLOUDY    58  44  60 E8        30.24S
IOWA CITY      MOCLDY    61  50  67 CALM      30.24S
MT. PLEASANT * PTCLDY    54  52  94 S5        30.25R
MUSCATINE *    CLEAR     63  52  67 W6        30.24R
QUAD CITIES    MOCLDY    54  44  69 E7        30.23S
$$

IAZ062-063-075>077-085>089-095>099-230900-
   SOUTHEAST IOWA

CITY           SKY/WX    TMP DP  RH WIND       PRES   REMARKS
BURLINGTON     PTCLDY    56  54  93 SW5       30.24R
FAIRFIELD *    PTCLDY    54  50  87 CALM      30.25R
FORT MADISON * PTCLDY    57  54  88 CALM      30.25R
KEOKUK *       PTCLDY    52  52 100 S5        30.25R
OSKALOOSA *      N/A     55  50  82 CALM      30.25R
CENTERVILLE *  CLEAR     48  48 100 E3        30.26R
OTTUMWA        PTCLDY    53  49  86 CALM      30.23S
WASHINGTON *   CLOUDY    57  54  88 CALM      30.25R
$$

ABBREVIATIONS USED IN REMARKS
   TC - TEMPERATURES IN CELSIUS
  WCI - WIND CHILL INDEX
   HX - HEAT INDEX
  VSB - VISIBILITY
$$




USA.gov is the U.S. government's official web portal to all federal, state and local government web resources and services.